DW3478 Weather Reports


time (UTC)temp
C
wind
direction
speed
KPH
gust
KPH
rain 1hr
cm
rain 24hr
cm
rain mn
cm
humidity
%
barometer
mb
20260906163804 25 185 4.8 11.3 0.00 0.00 0.00 65 1023.0
20260906162804 25 227 8.0 12.9 0.00 0.00 0.00 66 1023.0
20260906162306 25 218 8.0 12.9 0.00 0.00 0.00 65 1023.0
20260906161804 25 184 4.8 9.7 0.00 0.00 0.00 63 1023.0
20260906161304 25 191 4.8 11.3 0.00 0.00 0.00 65 1023.0
20260906160805 24 209 8.0 11.3 0.00 0.00 0.00 64 1023.0
20260906153304 25 212 4.8 11.3 0.00 0.00 0.00 64 1023.0
20260906151805 25 221 8.0 9.7 0.00 0.00 0.00 64 1023.0
20260906151306 25 209 8.0 14.5 0.00 0.00 0.00 62 1023.0
20260906144805 25 223 6.4 9.7 0.00 0.00 0.00 62 1023.0
20260906144305 25 190 6.4 11.3 0.00 0.00 0.00 63 1023.0
20260906143806 25 190 4.8 9.7 0.00 0.00 0.00 63 1023.0
20260906143305 25 220 8.0 11.3 0.00 0.00 0.00 65 1023.0
20260906142806 25 220 8.0 12.9 0.00 0.00 0.00 65 1023.0
20260906140805 25 209 8.0 14.5 0.00 0.00 0.00 64 1023.0
20260906140306 25 193 8.0 16.1 0.00 0.00 0.00 64 1023.0
20260906134805 25 177 8.0 14.5 0.00 0.00 0.00 65 1023.0
20260906132307 26 151 8.0 14.5 0.00 0.00 0.00 61 1023.0
20260906130305 25 183 8.0 16.1 0.00 0.00 0.00 63 1023.0
20260906125806 25 249 8.0 11.3 0.00 0.00 0.00 63 1023.0
20260906123305 25 197 8.0 11.3 0.00 0.00 0.00 64 1024.0
20260906122806 25 187 6.4 11.3 0.00 0.00 0.00 62 1024.0
20260906122306 25 195 4.8 14.5 0.00 0.00 0.00 64 1024.0
20260906121805 25 197 8.0 11.3 0.00 0.00 0.00 63 1024.0
20260906115806 25 205 6.4 14.5 0.00 0.00 0.00 66 1024.0
20260906115306 25 170 6.4 14.5 0.00 0.00 0.00 64 1024.0
20260906114805 24 240 4.8 9.7 0.00 0.00 0.00 67 1024.0
20260906114306 24 188 4.8 9.7 0.00 0.00 0.00 68 1024.0
20260906113806 26 172 4.8 11.3 0.00 0.00 0.00 62 1023.0
20260906113305 25 149 4.8 16.1 0.00 0.00 0.00 64 1023.0
20260906112806 26 129 4.8 19.3 0.00 0.00 0.00 60 1023.0
20260906112307 25 215 4.8 9.7 0.00 0.00 0.00 66 1023.0
20260906111806 25 92 4.8 11.3 0.00 0.00 0.00 65 1023.0
20260906111305 24 172 3.2 11.3 0.00 0.00 0.00 64 1023.0
20260906110806 25 103 16.1 32.2 0.00 0.00 0.00 64 1023.0
20260906110305 24 181 9.7 16.1 0.00 0.00 0.00 67 1023.0
20260906104305 24 205 4.8 9.7 0.00 0.00 0.00 67 1023.0
20260906103805 24 273 1.6 8.0 0.00 0.00 0.00 66 1023.0
20260906103305 24 179 4.8 9.7 0.00 0.00 0.00 66 1023.0
20260906102306 24 161 4.8 12.9 0.00 0.00 0.00 70 1023.0
20260906101806 23 114 6.4 12.9 0.00 0.00 0.00 71 1023.0
20260906100805 23 84 6.4 11.3 0.00 0.00 0.00 72 1023.0
20260906100306 23 21 4.8 8.0 0.00 0.00 0.00 73 1023.0
20260906095805 23 186 4.8 9.7 0.00 0.00 0.00 72 1023.0
20260906095306 23 150 8.0 11.3 0.00 0.00 0.00 73 1023.0
20260906094805 23 167 3.2 11.3 0.00 0.00 0.00 70 1023.0
20260906094305 24 102 4.8 11.3 0.00 0.00 0.00 67 1023.0
20260906093805 25 34 8.0 32.2 0.00 0.00 0.00 56 1023.0
20260906093305 24 28 9.7 22.5 0.00 0.00 0.00 56 1023.0
20260906092805 24 53 12.9 25.7 0.00 0.00 0.00 57 1023.0
20260906092306 24 64 11.3 22.5 0.00 0.00 0.00 56 1023.0
20260906091805 24 66 8.0 19.3 0.00 0.00 0.00 57 1023.0
20260906090305 23 38 9.7 27.4 0.00 0.00 0.00 60 1023.0
20260906085805 23 46 9.7 20.9 0.00 0.00 0.00 60 1023.0
20260906083805 23 38 9.7 19.3 0.00 0.00 0.00 60 1022.0
20260906083305 23 45 8.0 20.9 0.00 0.00 0.00 61 1022.0
20260906081805 22 74 6.4 32.2 0.00 0.00 0.00 63 1022.0
20260906081306 22 40 9.7 25.7 0.00 0.00 0.00 64 1022.0
20260906075805 21 59 6.4 20.9 0.00 0.00 0.00 65 1022.0
20260906075306 21 27 8.0 19.3 0.00 0.00 0.00 65 1022.0
20260906074806 21 56 6.4 14.5 0.00 0.00 0.00 67 1022.0
20260906072805 20 68 4.8 14.5 0.00 0.00 0.00 70 1022.0
20260906072306 20 39 3.2 11.3 0.00 0.00 0.00 70 1022.0
20260906063805 20 117 14.5 24.1 0.00 0.00 0.00 73 1022.0
20260906063305 20 55 8.0 19.3 0.00 0.00 0.00 74 1022.0
20260906062805 20 35 11.3 25.7 0.00 0.00 0.00 74 1022.0
20260906062306 20 52 6.4 19.3 0.00 0.00 0.00 75 1022.0
20260906061806 20 40 4.8 16.1 0.00 0.00 0.00 76 1022.0
20260906060305 20 36 4.8 11.3 0.00 0.00 0.00 77 1022.0
20260906055809 20 158 4.8 11.3 0.00 0.00 0.00 76 1022.0
20260906055306 20 51 4.8 9.7 0.00 0.00 0.00 77 1022.0
20260906054805 20 34 3.2 4.8 0.00 0.00 0.00 78 1022.0
20260906054305 20 112 4.8 9.7 0.00 0.00 0.00 77 1022.0
20260906053805 20 73 1.6 4.8 0.00 0.00 0.00 78 1021.0
20260906053305 20 31 1.6 4.8 0.00 0.00 0.00 78 1021.0
20260906035306 20 84 11.3 20.9 0.00 0.00 0.00 69 1022.0
20260906031305 20 63 8.0 19.3 0.00 0.00 0.00 70 1022.0
20260906024805 20 56 4.8 19.3 0.00 0.00 0.00 71 1022.0
20260906024305 20 55 8.0 19.3 0.00 0.00 0.00 71 1022.0
20260906020305 20 30 1.6 9.7 0.00 0.00 0.00 72 1022.0
20260906015804 20 62 3.2 12.9 0.00 0.00 0.00 73 1022.0
20260906015306 20 69 4.8 8.0 0.00 0.00 0.00 72 1022.0
20260906014805 20 23 1.6 4.8 0.00 0.00 0.00 72 1022.0
20260906014305 20 31 1.6 8.0 0.00 0.00 0.00 73 1022.0
20260906013805 20 27 3.2 4.8 0.00 0.00 0.00 73 1022.0
20260906011305 21 91 0.0 4.8 0.00 0.00 0.00 79 1022.0
20260906010804 20 114 3.2 4.8 0.00 0.00 0.00 78 1022.0
20260906010305 20 65 1.6 4.8 0.00 0.00 0.00 76 1022.0
20260906005805 20 76 1.6 4.8 0.00 0.00 0.00 74 1022.0
20260906004305 20 30 4.8 19.3 0.00 0.00 0.00 74 1022.0
20260906003805 20 58 3.2 4.8 0.00 0.00 0.00 77 1023.0
20260906003304 20 61 3.2 4.8 0.00 0.00 0.00 76 1023.0
20260906002805 20 42 3.2 4.8 0.00 0.00 0.00 73 1023.0
20260906002306 20 30 1.6 4.8 0.00 0.00 0.00 72 1023.0
20260905234305 20 24 1.6 3.2 0.00 0.00 0.00 81 1023.0
20260905233804 20 25 1.6 3.2 0.00 0.00 0.00 82 1023.0
20260905233304 20 22 3.2 4.8 0.00 0.00 0.00 82 1023.0
20260905232306 20 24 0.0 1.6 0.00 0.00 0.00 81 1023.0
20260905231805 20 30 0.0 3.2 0.00 0.00 0.00 81 1023.0
20260905231304 20 33 3.2 4.8 0.00 0.00 0.00 80 1023.0
20260905230804 20 35 3.2 4.8 0.00 0.00 0.00 81 1023.0
20260905230305 20 17 3.2 4.8 0.00 0.00 0.00 81 1023.0
20260905225805 20 35 3.2 4.8 0.00 0.00 0.00 80 1023.0
20260905225306 20 35 3.2 4.8 0.00 0.00 0.00 80 1023.0
20260905224305 20 40 3.2 4.8 0.00 0.00 0.00 79 1023.0
20260905222306 21 44 0.0 1.6 0.00 0.00 0.00 78 1022.0
20260905221804 21 339 0.0 4.8 0.00 0.00 0.00 78 1022.0
20260905221304 21 30 0.0 3.2 0.00 0.00 0.00 76 1022.0
20260905220805 21 36 3.2 4.8 0.00 0.00 0.00 77 1022.0
20260905215804 21 98 1.6 3.2 0.00 0.00 0.00 75 1022.0
20260905215306 21 83 1.6 4.8 0.00 0.00 0.00 74 1022.0
20260905214804 21 59 3.2 4.8 0.00 0.00 0.00 71 1022.0
20260905214305 21 81 3.2 4.8 0.00 0.00 0.00 68 1022.0
20260905213804 21 73 3.2 8.0 0.00 0.00 0.00 69 1022.0
20260905213305 21 39 3.2 9.7 0.00 0.00 0.00 69 1022.0
20260905212306 21 33 4.8 12.9 0.00 0.00 0.00 70 1022.0
20260905211805 21 31 3.2 4.8 0.00 0.00 0.00 72 1022.0
20260905211305 21 36 1.6 8.0 0.00 0.00 0.00 75 1022.0
20260905205306 22 250 0.0 1.6 0.00 0.00 0.00 82 1022.0
20260905202804 22 243 0.0 3.2 0.00 0.00 0.00 81 1021.0
20260905202306 22 243 1.6 4.8 0.00 0.00 0.00 81 1021.0
20260905195804 22 234 1.6 3.2 0.00 0.00 0.00 79 1021.0
20260905195306 22 229 1.6 3.2 0.00 0.00 0.00 79 1021.0
20260905194804 22 257 0.0 4.8 0.00 0.00 0.00 79 1021.0
20260905194304 22 252 1.6 3.2 0.00 0.00 0.00 79 1021.0
20260905193804 22 168 0.0 1.6 0.00 0.00 0.00 79 1021.0
20260905193305 22 168 1.6 3.2 0.00 0.00 0.00 79 1021.0
20260905192804 22 168 1.6 3.2 0.00 0.00 0.00 79 1021.0
20260905192306 22 168 0.0 3.2 0.00 0.00 0.00 79 1021.0
20260905191805 22 178 0.0 1.6 0.00 0.00 0.00 79 1021.0
20260905191304 22 181 0.0 4.8 0.00 0.00 0.00 79 1021.0
20260905185804 22 188 3.2 4.8 0.00 0.00 0.00 79 1021.0
20260905185306 22 122 3.2 4.8 0.00 0.00 0.00 79 1021.0
20260905183804 22 192 3.2 4.8 0.00 0.00 0.00 79 1021.0
20260905183304 22 194 3.2 4.8 0.00 0.00 0.00 78 1021.0
20260905172305 22 248 4.8 8.0 0.00 0.00 0.00 78 1020.0
20260905171804 23 219 4.8 9.7 0.00 0.00 0.00 78 1020.0
20260905171304 23 247 4.8 4.8 0.00 0.00 0.00 78 1020.0
20260905164804 23 237 3.2 4.8 0.00 0.00 0.00 78 1020.0
20260905164305 23 243 4.8 4.8 0.00 0.00 0.00 76 1020.0